Regional Weather Roundup
Issued by NWS

Home | Current Version | Previous Version | Text Only | Print | Product List | Glossary Off
Versions: 1 2 3 4 5 6 7 8 9 10 11 12 13 14 15 16 17 18 19 20 21 22 23 24 25 26 27 28 29 30 31 32 33 34 35 36 37 38 39 40 41 42 43 44 45 46 47 48 49 50

000
ASUS43 KDMX 231806
RWRIA

WEATHER ROUNDUP FOR IOWA
NATIONAL WEATHER SERVICE DES MOINES IA
1200 PM CST THU FEB 23 2017

NOTE: "FAIR" INDICATES FEW OR NO CLOUDS BELOW 12,000 FEET WITH NO
SIGNIFICANT WEATHER AND/OR OBSTRUCTIONS TO VISIBILITY.

* - THESE STATIONS ARE NOT NWS STATIONS...THUS NOT UNDER NWS
QUALITY CONTROL.  THEY ALSO DO NOT REPORT WEATHER SUCH
AS PRECIPITATION OR FOG.

IAZ001>003-012>014-020>022-031>034-043>046-231900-
   NORTHWEST IOWA

CITY           SKY/WX    TMP DP  RH WIND       PRES   REMARKS
CARROLL *      CLOUDY    39  37  93 NE20      29.74F WCI  30
CHEROKEE *     CLOUDY    35  31  87 NE9G22    29.80F WCI  27
DENISON *      CLOUDY    37  34  87 NE18G26   29.71F WCI  27
LE MARS *      CLOUDY    34  30  86 NE15G22   29.81F WCI  24
ORANGE CITY *  CLOUDY    34  30  86 NE9G17    29.82S WCI  26
SHELDON *      CLOUDY    32  32 100 NE20      29.82R WCI  20
SIOUX CITY     CLOUDY    37  30  75 NE20      29.78F WCI  27
6HR MIN TEMP:  37; 6HR MAX TEMP:  37;

SPENCER        CLOUDY    33  30  88 NE20      29.82F WCI  21
6HR MIN TEMP:  32; 6HR MAX TEMP:  34;

STORM LAKE *   CLOUDY    34  32  93 NE21      29.78S WCI  22
$$

IAZ055>058-069>071-079>083-090>094-231900-
   SOUTHWEST IOWA

CITY           SKY/WX    TMP DP  RH WIND       PRES   REMARKS
ATLANTIC *     CLOUDY    39  36  87 NE15G25   29.69F FOG     WCI  31
CLARINDA *     CLOUDY    43  39  87 E13G25    29.67F
COUNCIL BLFS *   N/A     39  37  93 E22G29    29.68F WCI  29
CRESTON *      CLOUDY    43  39  87 E22       29.69F
HARLAN  *      CLOUDY    39  39 100 NE17G25   29.72F WCI  30
LAMONI         CLOUDY    43  40  89 E12G25    29.67F
6HR MIN TEMP:  39; 6HR MAX TEMP:  43; 6HR PCP:  0.04;

RED OAK *      CLOUDY    41  37  87 NE22      29.66F
SHENANDOAH *   CLOUDY    43  37  81 NE20G25   29.65F
$$

IAZ047>049-059>061-072>074-084-231900-
   CENTRAL IOWA

CITY           SKY/WX    TMP DP  RH WIND       PRES   REMARKS
AMES           CLOUDY    42  37  82 NE13      29.76F
6HR MIN TEMP:  38; 6HR MAX TEMP:  42;

ANKENY *       CLOUDY    41  36  81 NE15      29.76F
BOONE *        CLOUDY    39  37  93 NE14G22   29.76S WCI  31
CHARITON *     CLOUDY    45  39  81 E21       29.69F
DES MOINES     CLOUDY    43  36  76 E16G24    29.73F
6HR MIN TEMP:  39; 6HR MAX TEMP:  43;

GRINNELL*      CLOUDY    42  36  79 NE13      29.77F
KNOXVILLE *    MIX PCPN  43  37  81 NE16G23   29.70F
MARSHALLTOWN   CLOUDY    43  37  79 NE15      29.76F
6HR MIN TEMP:  38; 6HR MAX TEMP:  43;

NEWTON *       CLOUDY    43  37  81 NE16      29.74F
PELLA *        LGT RAIN  43  37  79 E9        29.75F
PERRY *        CLOUDY    40  36  84 NE14      29.76F WCI  32
$$

IAZ004>006-015-016-023>025-035-036-231900-
   NORTH CENTRAL IOWA

CITY           SKY/WX    TMP DP  RH WIND       PRES   REMARKS
ALGONA *       CLOUDY    36  34  93 NE13G21   29.83R WCI  27
CLARION *      CLOUDY    37  37 100 NE14      29.81F WCI  29
ESTHERVILLE    CLOUDY    32  30  92 NE18      29.84S WCI  20
6HR MIN TEMP:  30; 6HR MAX TEMP:  33;

FORT DODGE *   CLOUDY    37  30  75 NE14G21   29.80F WCI  29
MASON CITY     CLOUDY    37  32  82 NE17      29.83F WCI  27
6HR MIN TEMP:  35; 6HR MAX TEMP:  37;

FOREST CITY *  CLOUDY    36  32  87 NE12      29.82R WCI  27
WEBSTER CITY * CLOUDY    39  34  81 NE17      29.76F WCI  30
IOWA FALLS *   CLOUDY    40  35  80 NE14G20   29.80F WCI  33
$$

IAZ007>011-017>019-026>030-037>042-050>054-066-231900-
   NORTHEAST IOWA

CITY           SKY/WX    TMP DP  RH WIND       PRES   REMARKS
CEDAR RAPIDS   CLOUDY    44  37  76 E10       29.79F
6HR MIN TEMP:  40; 6HR MAX TEMP:  44;

CHARLES CITY * CLOUDY    41  37  87 NE13G21   29.82F
CLINTON *      CLOUDY    46  40  79 NE7       29.83R
DECORAH *      CLOUDY    43  32  65 NE7G21    29.79F
DUBUQUE        CLOUDY    43  35  73 NE14      29.81S
6HR MIN TEMP:  39; 6HR MAX TEMP:  44;

MONTICELLO *   CLOUDY    45  36  70 NE8       29.82S
OELWEIN *      CLOUDY    43  36  75 NE13      29.82S
WATERLOO       CLOUDY    44  34  67 NE14      29.81F
6HR MIN TEMP:  39; 6HR MAX TEMP:  46;

$$

IAZ064-065-067-068-078-231900-
   EAST CENTRAL IOWA

CITY           SKY/WX    TMP DP  RH WIND       PRES   REMARKS
DAVENPORT      CLOUDY    47  39  74 E9        29.82R
6HR MIN TEMP:  39; 6HR MAX TEMP:  47;

IOWA CITY      CLOUDY    47  37  68 E8        29.81F
6HR MIN TEMP:  43; 6HR MAX TEMP:  47;

MUSCATINE *    CLOUDY    46  39  76 NE8       29.80F
QUAD CITIES    CLOUDY    48  41  76 N9        29.78F
$$

IAZ062-063-075>077-085>089-095>099-231900-
   SOUTHEAST IOWA

CITY           SKY/WX    TMP DP  RH WIND       PRES   REMARKS
BURLINGTON     LGT RAIN  46  43  89 NE12      29.74F
6HR MIN TEMP:  43; 6HR MAX TEMP:  46; 6HR PCP: TRACE;

FAIRFIELD *    CLOUDY    45  39  81 NE10      29.74F
KEOKUK *       CLOUDY    46  43  87 E13       29.74F
CENTERVILLE *  PTSUNNY   43  41  93 E13       29.73F
OTTUMWA        LGT RAIN  44  40  85 NE13      29.73F
6HR MIN TEMP:  41; 6HR MAX TEMP:  45; 6HR PCP: TRACE;

WASHINGTON *   CLOUDY    46  41  81 NE20      29.75F
$$

ABBREVIATIONS USED IN REMARKS
   TC - TEMPERATURES IN CELSIUS
  WCI - WIND CHILL INDEX
   HX - HEAT INDEX
  VSB - VISIBILITY
$$





USA.gov is the U.S. government's official web portal to all federal, state and local government web resources and services.